Flag for Canada Weather past 2 weeks in Sault Ste. Marie, Ontario, Canada

Now
45 °F

Fog.


Feels Like: 43 °F
Forecast: 43 / 50 °F
Wind: 3 mph from Northeast

Location: Sault Ste Marie

Current Time: Oct 20, 2014 at 9:11:48 AM

Latest Report: Oct 20, 2014 at 8:48 AM


Visibility: 1 mi

Pressure: 29.76 "Hg

Humidity: 100%

Dew point: 45 °F

Location of Sault Ste. MarieLocation

Historic Weather in Sault Ste. Marie — Graph

°F

Sault Ste. Marie temperature yesterday

Maximum temperature yesterday: 48 °F (at 2:00 PM)
Minimum temperature yesterday: 28 °F (at 3:00 AM)
Average temperature yesterday: 38 °F

Past Weeks' High & Low Weather Summary

 TemperatureHumidityPressure
High59 °F (Oct 12, 1:00 PM)100% (Oct 8, 2:00 AM)30.24 "Hg (Oct 8, 2:00 AM)
Low28 °F (Oct 12, 12:00 AM)44% (Oct 12, 5:00 PM)29.42 "Hg (Oct 17, 1:52 PM)
Average46 °F83%29.83 "Hg
* Reported Oct 5 7:00 AM — Oct 20 7:00 AM, Sault Ste. Marie, Weather by CustomWeather, © 2014

Note: Actual official high and low records may vary slightly from our data, if they occured in-between our weather recording intervals... More about our weather records

Advertising

Sault Ste. Marie weather history for previous 24 hours

 ConditionsComfort  
Time TempWeatherWind HumidityBarometerVisibility
7:00 AM
Oct 20
45 °FFog.2 mph100%29.74 "Hg2 mi
6:00 AM45 °FDrizzle. Fog.3 mph100%29.73 "Hg2 mi
5:00 AM45 °FDrizzle. Fog.3 mph100%29.74 "Hg2 mi
4:47 AM45 °FDrizzle. Fog.3 mph100%29.74 "Hg2 mi
4:00 AM45 °FDrizzle. Fog.3 mph100%29.75 "Hg1 mi
3:00 AM45 °FDrizzle. Fog.3 mph100%29.76 "Hg1 mi
2:00 AM45 °FDrizzle. Fog.5 mph93%29.77 "Hg1 mi
1:00 AM45 °FLight rain. Fog.6 mph93%29.78 "Hg2 mi
11:00 PM
Oct 19
43 °FLight rain. Mostly cloudy.6 mph93%29.84 "Hg8 mi
10:00 PM43 °FLight rain. Overcast.6 mph93%29.88 "Hg10 mi
9:00 PM43 °FLight rain. Mostly cloudy.8 mph93%29.89 "Hg10 mi
8:00 PM45 °FLight rain. Mostly cloudy.5 mph87%29.90 "Hg12 mi
7:00 PM45 °FLight rain. Overcast.6 mph93%29.90 "Hg12 mi
6:00 PM46 °FOvercast.8 mph76%29.93 "Hg15 mi
5:00 PM46 °FCloudy.2 mph82%29.95 "Hg15 mi
4:00 PM46 °FMostly cloudy.8 mph71%29.97 "Hg15 mi
3:00 PM48 °FOvercast.7 mph66%30.00 "Hg15 mi
2:00 PM48 °FPartly sunny.7 mph66%30.03 "Hg15 mi
1:00 PM45 °FBroken clouds.5 mph66%30.07 "Hg15 mi
12:00 PM41 °FBroken clouds.5 mph70%30.11 "Hg15 mi
11:00 AM37 °FBroken clouds.6 mph75%30.12 "Hg15 mi
10:00 AM36 °FPartly sunny.5 mph81%30.14 "Hg15 mi
9:00 AM34 °FPartly sunny.5 mph81%30.14 "Hg15 mi
Weather by CustomWeather, © 2014

See weather overviewHow to use our weather pages